DW1980 Weather Reports


Display with metric or nautical units.
time (UTC)temp
F
wind
direction
speed
MPH
gust
MPH
rain 1hr
in
rain 24hr
in
rain mn
in
humidity
%
barometer
mb
20260502181844 57 334 2.0 7.0 0.00 0.02 0.02 69 1011.4
20260502181608 57 98 2.0 7.0 0.00 0.02 0.02 71 1011.4
20260502181556 57 111 1.0 7.0 0.00 0.02 0.02 71 1010.7
20260502181354 57 46 2.0 7.0 0.00 0.02 0.02 72 1011.4
20260502180843 57 331 3.0 12.0 0.00 0.02 0.02 71 1011.4
20260502180353 57 5 3.0 12.0 0.00 0.02 0.02 72 1011.5
20260502180117 56 355 5.0 12.0 0.00 0.02 0.02 73 1011.5
20260502170342 57 270 3.0 7.0 0.00 0.02 0.02 69 1011.7
20260502170108 56 321 1.0 7.0 0.00 0.02 0.02 71 1011.7
20260502164341 57 311 3.0 8.0 0.00 0.02 0.02 67 1011.9
20260502163850 57 259 2.0 8.0 0.00 0.02 0.02 69 1011.9
20260502163342 57 302 4.0 8.0 0.00 0.02 0.02 69 1011.9
20260502163118 56 297 2.0 6.0 0.00 0.02 0.02 68 1011.8
20260502163036 56 307 1.0 9.0 0.00 0.02 0.02 68 1011.3
20260502162849 57 219 2.0 9.0 0.00 0.02 0.02 69 1011.8
20260502162339 57 310 5.0 10.0 0.00 0.02 0.02 69 1011.9
20260502161849 57 311 3.0 10.0 0.00 0.02 0.02 70 1011.9
20260502161617 56 273 6.0 10.0 0.00 0.02 0.02 71 1012.0
20260502161542 56 283 5.0 10.0 0.00 0.02 0.02 70 1011.3
20260502161340 57 279 4.0 8.0 0.00 0.02 0.02 73 1012.0
20260502160850 56 243 3.0 9.0 0.00 0.02 0.02 70 1011.9
20260502160341 57 256 5.0 9.0 0.00 0.02 0.02 71 1012.1
20260502160108 56 275 2.0 7.0 0.00 0.02 0.02 71 1012.1
20260502152340 55 321 4.0 10.0 0.00 0.02 0.02 73 1012.2
20260502151850 56 297 3.0 10.0 0.00 0.02 0.02 74 1012.1
20260502151611 55 331 4.0 8.0 0.00 0.02 0.02 75 1012.2
20260502151542 55 290 3.0 8.0 0.00 0.02 0.02 75 1011.7
20260502151358 56 287 2.0 8.0 0.00 0.02 0.02 75 1012.2
20260502150847 55 296 1.0 8.0 0.00 0.02 0.02 79 1012.2
20260502150356 54 277 2.0 9.0 0.00 0.02 0.02 78 1012.3
20260502150117 54 294 3.0 9.0 0.00 0.02 0.02 78 1012.3
20260502140115 53 333 0.0 5.0 0.00 0.02 0.02 83 1012.3
20260502130348 51 262 1.0 3.0 0.00 0.02 0.02 92 1012.7
20260502130108 50 291 0.0 3.0 0.00 0.02 0.02 92 1012.7
20260502123339 50 311 1.0 3.0 0.00 0.02 0.02 95 1012.5
20260502123043 49 327 2.0 3.0 0.00 0.02 0.02 95 1012.0
20260502123013 49 329 1.0 3.0 0.00 0.02 0.02 96 1012.5
20260502122906 50 300 2.0 3.0 0.00 0.02 0.02 96 1012.5
20260502122355 50 342 0.0 2.0 0.00 0.02 0.02 96 1012.3
20260502121846 50 326 0.0 1.0 0.00 0.02 0.02 96 1012.4
20260502121609 49 355 0.0 1.0 0.00 0.02 0.02 97 1012.3
20260502121540 49 0 0.0 1.0 0.00 0.02 0.02 96 1011.7
20260502121355 50 355 0.0 1.0 0.00 0.02 0.02 97 1012.4
20260502120845 49 355 0.0 0.0 0.00 0.02 0.02 97 1012.4
20260502120357 49 355 0.0 1.0 0.00 0.02 0.02 96 1012.4
20260502120120 49 355 0.0 1.0 0.00 0.02 0.02 96 1012.4
20260502115843 49 355 0.0 1.0 0.00 0.02 0.02 96 1012.5
20260502115353 49 355 0.0 1.0 0.00 0.02 0.02 97 1012.4
20260502114901 49 355 0.0 0.0 0.00 0.02 0.02 97 1012.4
20260502114637 49 355 0.0 0.0 0.00 0.02 0.02 97 1012.4
20260502114544 48 0 0.0 0.0 0.00 0.02 0.02 96 1011.7
20260502114351 49 355 0.0 0.0 0.00 0.02 0.02 97 1012.3
20260502113841 49 355 0.0 0.0 0.00 0.02 0.02 96 1012.4
20260502113353 49 355 0.0 1.0 0.00 0.02 0.02 96 1012.4
20260502113118 48 355 0.0 1.0 0.00 0.02 0.02 96 1012.5
20260502113040 48 0 0.0 1.0 0.00 0.02 0.02 96 1011.9
20260502112840 48 355 0.0 1.0 0.00 0.02 0.02 96 1012.5
20260502112350 48 355 0.0 2.0 0.00 0.02 0.02 96 1012.2
20260502111900 48 355 0.0 2.0 0.00 0.02 0.02 96 1012.2
20260502111608 48 355 0.0 2.0 0.00 0.02 0.02 96 1012.2
20260502111543 48 0 0.0 1.0 0.00 0.02 0.02 96 1011.5
20260502111351 48 279 0.0 1.0 0.00 0.02 0.02 96 1012.3
20260502110840 48 279 0.0 1.0 0.00 0.02 0.02 96 1012.1
20260502110351 48 279 0.0 1.0 0.01 0.02 0.02 96 1012.1
20260502110115 48 279 0.0 1.0 0.01 0.02 0.02 96 1012.1
20260502110043 47 279 0.0 1.0 0.01 0.02 0.02 96 1011.4
20260502105857 48 279 0.0 1.0 0.01 0.02 0.02 96 1012.0
20260502105346 48 278 0.0 1.0 0.01 0.02 0.02 96 1012.0
20260502104837 48 278 0.0 1.0 0.01 0.02 0.02 96 1012.0
20260502104604 48 278 0.0 1.0 0.01 0.02 0.02 96 1012.0
20260502104542 48 0 0.0 1.0 0.01 0.02 0.02 96 1011.4
20260502104346 48 278 0.0 1.0 0.01 0.02 0.02 96 1012.1
20260502103836 48 278 0.0 2.0 0.02 0.02 0.02 96 1012.0
20260502103348 48 278 0.0 2.0 0.02 0.02 0.02 96 1011.9
20260502103116 48 278 0.0 2.0 0.02 0.02 0.02 96 1011.9
20260502103038 48 278 0.0 2.0 0.02 0.02 0.02 96 1011.3
20260502102917 48 278 0.0 1.0 0.02 0.02 0.02 96 1012.0
20260502102347 48 278 0.0 1.0 0.02 0.02 0.02 96 1011.9
20260502101836 48 278 0.0 1.0 0.02 0.02 0.02 96 1012.0
20260502101619 48 278 0.0 1.0 0.02 0.02 0.02 96 1012.0
20260502101543 48 0 0.0 1.0 0.02 0.02 0.02 95 1011.3
20260502101347 48 278 0.0 1.0 0.02 0.02 0.02 96 1011.8
20260502100840 48 278 0.0 0.0 0.02 0.02 0.02 96 1012.1
20260502100351 48 278 0.0 0.0 0.01 0.01 0.01 96 1012.1
20260502100113 48 278 0.0 0.0 0.01 0.01 0.01 96 1012.0
20260502091345 48 253 0.0 0.0 0.00 0.00 0.00 95 1012.0
20260502090855 48 253 0.0 0.0 0.00 0.00 0.00 95 1011.9
20260502090346 48 253 0.0 0.0 0.00 0.00 0.00 95 1012.0
20260502090112 48 253 0.0 0.0 0.00 0.00 0.00 95 1012.1
20260502071339 48 257 1.0 2.0 0.00 0.00 0.00 93 1012.2
20260502070850 48 319 0.0 0.0 0.00 0.00 0.00 93 1011.9
20260502070342 48 319 0.0 0.0 0.00 0.00 0.00 93 1011.8
20260502070110 47 319 0.0 0.0 0.00 0.00 0.00 93 1011.9
20260502070041 47 0 0.0 1.0 0.00 0.00 0.00 93 1011.1
20260502065910 48 319 0.0 1.0 0.00 0.00 0.00 93 1011.9
20260502065339 48 319 0.0 1.0 0.00 0.00 0.00 93 1011.8
20260502064850 48 319 0.0 1.0 0.00 0.00 0.00 93 1011.8
20260502064625 47 319 0.0 1.0 0.00 0.00 0.00 93 1011.9
20260502064554 47 0 0.0 1.0 0.00 0.00 0.00 92 1011.0
20260502064340 48 319 0.0 1.0 0.00 0.00 0.00 93 1011.9
20260502063849 48 319 0.0 2.0 0.00 0.00 0.00 93 1011.8
20260502063341 48 319 0.0 2.0 0.00 0.00 0.00 93 1011.8
20260502063131 48 319 0.0 1.0 0.00 0.00 0.00 92 1011.9
20260502063038 48 0 0.0 1.0 0.00 0.00 0.00 92 1011.0
20260502062847 48 319 0.0 1.0 0.00 0.00 0.00 92 1012.0
20260502062337 48 319 0.0 2.0 0.00 0.00 0.00 92 1012.0
20260502061847 48 319 0.0 2.0 0.00 0.00 0.00 92 1012.1
20260502061615 48 319 0.0 2.0 0.00 0.00 0.00 92 1012.2
20260502061543 48 319 0.0 1.0 0.00 0.00 0.00 91 1011.2
20260502061338 48 319 0.0 1.0 0.00 0.00 0.00 92 1011.9
20260502060848 48 319 0.0 1.0 0.00 0.00 0.00 92 1012.1
20260502060400 48 319 0.0 0.0 0.00 0.00 0.00 92 1012.2
20260502060104 48 319 0.0 1.0 0.00 0.00 0.00 92 1012.2
20260502060046 48 0 0.0 1.0 0.00 0.00 0.00 91 1011.3
20260502055846 48 319 0.0 1.0 0.00 0.00 0.00 92 1012.1
20260502055341 48 319 0.0 1.0 0.00 0.00 0.00 92 1012.1
20260502054908 48 319 0.0 0.0 0.00 0.00 0.00 91 1012.2
20260502054614 48 319 0.0 0.0 0.00 0.00 0.00 91 1012.2
20260502054543 48 0 0.0 0.0 0.00 0.00 0.00 91 1011.3
20260502054340 48 319 0.0 0.0 0.00 0.00 0.00 91 1012.2
20260502053850 48 319 0.0 1.0 0.00 0.00 0.00 91 1012.2
20260502053341 48 319 0.0 1.0 0.00 0.00 0.00 91 1012.3
20260502053121 48 319 0.0 1.0 0.00 0.00 0.00 91 1012.3
20260502053039 48 0 0.0 1.0 0.00 0.00 0.00 90 1011.3
20260502052847 48 319 0.0 0.0 0.00 0.00 0.00 91 1012.2
20260502052358 48 319 0.0 0.0 0.00 0.00 0.00 91 1012.2
20260502051846 48 319 0.0 1.0 0.00 0.00 0.00 91 1012.2
20260502051610 48 319 0.0 1.0 0.00 0.00 0.00 91 1012.3
20260502051540 48 0 0.0 1.0 0.00 0.00 0.00 90 1011.4
20260502051358 48 319 0.0 1.0 0.00 0.00 0.00 91 1012.3
20260502050846 48 319 0.0 0.0 0.00 0.00 0.00 90 1012.2
20260502050357 48 319 0.0 0.0 0.00 0.00 0.00 91 1012.1
20260502050116 48 319 0.0 1.0 0.00 0.00 0.00 90 1012.2
20260502050043 48 0 0.0 1.0 0.00 0.00 0.00 90 1011.3
20260502045841 48 319 0.0 1.0 0.00 0.00 0.00 90 1012.1
20260502045350 48 319 1.0 1.0 0.00 0.00 0.00 90 1012.2
20260502044857 48 319 0.0 0.0 0.00 0.00 0.00 90 1012.2
20260502044632 48 319 0.0 0.0 0.00 0.00 0.00 90 1012.3
20260502044543 48 0 0.0 1.0 0.00 0.00 0.00 90 1011.5
20260502044346 48 319 0.0 0.0 0.00 0.00 0.00 90 1012.4
20260502043915 48 319 0.0 1.0 0.00 0.00 0.00 90 1012.3
20260502043342 48 319 0.0 1.0 0.00 0.00 0.00 90 1012.2
20260502043132 48 319 0.0 1.0 0.00 0.00 0.00 90 1012.4
20260502043043 48 0 0.0 1.0 0.00 0.00 0.00 90 1011.6
20260502042848 48 319 0.0 1.0 0.00 0.00 0.00 90 1012.4
20260502042335 48 319 0.0 1.0 0.00 0.00 0.00 90 1012.4
20260502041845 48 319 0.0 1.0 0.00 0.00 0.00 90 1012.5
20260502041613 48 319 0.0 1.0 0.00 0.00 0.00 90 1012.4
20260502041541 48 0 0.0 1.0 0.00 0.00 0.00 89 1011.6
20260502041356 48 319 0.0 1.0 0.00 0.00 0.00 90 1012.4
20260502040846 48 319 0.0 1.0 0.00 0.00 0.00 90 1012.3
20260502040356 48 319 0.0 1.0 0.00 0.00 0.00 89 1012.4
20260502040051 48 0 0.0 1.0 0.00 0.00 0.00 89 1011.6
20260502035904 48 319 0.0 1.0 0.00 0.00 0.00 89 1012.3
20260502035353 48 319 0.0 1.0 0.00 0.00 0.00 89 1012.2
20260502034842 48 319 1.0 2.0 0.00 0.00 0.00 89 1012.2
20260502034611 48 319 0.0 2.0 0.00 0.00 0.00 89 1012.3
20260502034536 48 0 1.0 2.0 0.00 0.00 0.00 88 1011.7
20260502034352 48 319 1.0 2.0 0.00 0.00 0.00 89 1012.4
20260502033904 48 44 0.0 1.0 0.00 0.00 0.00 89 1012.1
20260502033352 48 44 0.0 1.0 0.00 0.00 0.00 88 1012.2
20260502033118 48 44 0.0 1.0 0.00 0.00 0.00 88 1012.3
20260502033041 48 0 0.0 1.0 0.00 0.00 0.00 88 1011.6
20260502032840 48 44 0.0 1.0 0.00 0.00 0.00 88 1012.3
20260502032351 48 44 0.0 1.0 0.00 0.00 0.00 88 1012.3
20260502031841 48 44 0.0 0.0 0.00 0.00 0.00 88 1012.4
20260502031610 48 44 0.0 1.0 0.00 0.00 0.00 88 1012.4
20260502031547 48 0 0.0 1.0 0.00 0.00 0.00 87 1011.6
20260502031351 48 44 0.0 1.0 0.00 0.00 0.00 87 1012.4
20260502030840 48 44 0.0 1.0 0.00 0.00 0.00 87 1012.5
20260502030352 48 44 0.0 1.0 0.00 0.00 0.00 87 1012.4
20260502030118 48 44 0.0 1.0 0.00 0.00 0.00 87 1012.6
20260502030040 48 0 0.0 2.0 0.00 0.00 0.00 87 1011.9
20260502025839 48 44 0.0 2.0 0.00 0.00 0.00 87 1012.5
20260502025349 49 44 0.0 2.0 0.00 0.00 0.00 87 1012.6
20260502024839 49 44 0.0 1.0 0.00 0.00 0.00 86 1012.6
20260502024607 48 44 0.0 0.0 0.00 0.00 0.00 86 1012.6
20260502024537 48 0 0.0 1.0 0.00 0.00 0.00 86 1011.8
20260502024410 49 44 0.0 1.0 0.00 0.00 0.00 86 1012.5
20260502023347 49 44 1.0 1.0 0.00 0.00 0.00 85 1012.5
20260502023111 49 44 0.0 1.0 0.00 0.00 0.00 85 1012.6
20260502023050 49 0 0.0 1.0 0.00 0.00 0.00 84 1011.9
20260502022853 49 44 0.0 1.0 0.00 0.00 0.00 85 1012.5
20260502022343 49 44 0.0 1.0 0.00 0.00 0.00 84 1012.6
20260502021853 50 44 0.0 1.0 0.00 0.00 0.00 84 1012.5
20260502021621 49 44 0.0 1.0 0.00 0.00 0.00 83 1012.5
20260502021544 49 0 0.0 1.0 0.00 0.00 0.00 83 1011.8
20260502021344 50 44 0.0 1.0 0.00 0.00 0.00 83 1012.4
20260502020835 50 44 0.0 1.0 0.00 0.00 0.00 83 1012.5
20260502020410 50 44 0.0 1.0 0.00 0.00 0.00 82 1012.6
20260502020114 50 44 0.0 1.0 0.00 0.00 0.00 82 1012.7
20260502020053 50 0 0.0 1.0 0.00 0.00 0.00 82 1012.0
20260502015835 50 56 0.0 1.0 0.00 0.00 0.00 82 1012.6
20260502015347 51 56 0.0 1.0 0.00 0.00 0.00 82 1012.5
20260502014841 51 56 0.0 2.0 0.00 0.00 0.00 81 1012.4
20260502014603 50 56 0.0 2.0 0.00 0.00 0.00 81 1012.3
20260502014549 50 56 0.0 2.0 0.00 0.00 0.00 81 1011.8
20260502014406 51 69 0.0 2.0 0.00 0.00 0.00 81 1012.3
20260502013838 51 69 1.0 2.0 0.00 0.00 0.00 80 1012.3
20260502013407 52 17 1.0 2.0 0.00 0.00 0.00 80 1012.4
20260502013110 51 30 0.0 2.0 0.00 0.00 0.00 80 1012.4
20260502013037 52 92 0.0 2.0 0.00 0.00 0.00 79 1011.8
20260502012836 52 154 1.0 2.0 0.00 0.00 0.00 79 1012.3
20260502012345 53 9 1.0 1.0 0.00 0.00 0.00 78 1012.3
20260502011836 53 9 0.0 1.0 0.00 0.00 0.00 77 1012.3
20260502011546 53 0 0.0 1.0 0.00 0.00 0.00 76 1011.8
20260502011509 53 9 0.0 1.0 0.00 0.00 0.00 77 1012.4
20260502011408 53 9 0.0 0.0 0.00 0.00 0.00 77 1012.3
20260502010838 54 9 0.0 0.0 0.00 0.00 0.00 77 1012.3
20260502010348 54 9 0.0 2.0 0.00 0.00 0.00 78 1012.3
20260502010111 54 9 0.0 2.0 0.00 0.00 0.00 78 1012.4
20260502010039 54 0 0.0 3.0 0.00 0.00 0.00 77 1011.7
20260502005914 54 9 0.0 3.0 0.00 0.00 0.00 77 1012.3
20260502005344 54 314 1.0 3.0 0.00 0.00 0.00 74 1012.3
20260502004854 54 295 1.0 2.0 0.00 0.00 0.00 74 1012.2
20260502004618 54 46 0.0 2.0 0.00 0.00 0.00 75 1012.2
20260502004542 54 0 0.0 5.0 0.00 0.00 0.00 75 1011.6
20260502004344 55 46 1.0 2.0 0.00 0.00 0.00 76 1012.2
20260502003853 55 31 1.0 5.0 0.00 0.00 0.00 73 1012.2
20260502003342 55 308 2.0 5.0 0.00 0.00 0.00 73 1012.2
20260502003102 54 288 1.0 3.0 0.00 0.00 0.00 73 1012.2
20260502003037 54 287 1.0 3.0 0.00 0.00 0.00 73 1011.6
20260502002909 55 239 1.0 3.0 0.00 0.00 0.00 74 1012.1
20260502002357 55 246 1.0 5.0 0.00 0.00 0.00 73 1011.8
20260502001848 55 222 3.0 5.0 0.00 0.00 0.00 72 1011.8
20260502001612 54 267 2.0 5.0 0.00 0.00 0.00 72 1011.8
20260502001601 54 269 1.0 5.0 0.00 0.00 0.00 72 1011.2
20260502001338 55 168 1.0 4.0 0.00 0.00 0.00 72 1011.7
20260502000850 55 171 1.0 5.0 0.00 0.00 0.00 72 1011.7
20260502000341 55 221 2.0 5.0 0.00 0.00 0.00 73 1011.5
20260502000105 54 197 1.0 3.0 0.00 0.00 0.00 72 1011.6
20260502000042 54 185 0.0 4.0 0.00 0.00 0.00 72 1011.1
20260501235847 55 211 1.0 3.0 0.00 0.00 0.00 72 1011.5
20260501235357 55 170 1.0 3.0 0.00 0.00 0.00 72 1011.4
20260501234846 55 177 1.0 3.0 0.00 0.00 0.00 71 1011.4
20260501234616 55 169 0.0 3.0 0.00 0.00 0.00 72 1011.4
20260501234540 55 169 0.0 5.0 0.00 0.00 0.00 71 1010.9
20260501234338 55 159 1.0 5.0 0.00 0.00 0.00 71 1011.4
20260501233849 55 172 2.0 5.0 0.00 0.00 0.00 70 1011.3
20260501233339 56 186 1.0 4.0 0.00 0.00 0.00 70 1011.2
20260501233110 55 173 1.0 4.0 0.00 0.00 0.00 69 1011.2
20260501233038 55 178 1.0 7.0 0.00 0.00 0.00 68 1010.7
20260501232846 56 198 2.0 7.0 0.00 0.00 0.00 69 1011.1
20260501232337 56 148 2.0 7.0 0.00 0.00 0.00 69 1011.0
20260501231847 56 146 2.0 4.0 0.00 0.00 0.00 69 1011.0
20260501231615 55 181 1.0 4.0 0.00 0.00 0.00 70 1011.0
20260501231539 55 140 2.0 5.0 0.00 0.00 0.00 69 1010.6
20260501231338 56 182 2.0 5.0 0.00 0.00 0.00 71 1011.0
20260501230849 56 116 1.0 3.0 0.00 0.00 0.00 71 1010.9
20260501230341 56 152 1.0 3.0 0.00 0.00 0.00 70 1010.9
20260501230043 55 173 1.0 3.0 0.00 0.00 0.00 68 1010.4
20260501225848 56 175 2.0 3.0 0.00 0.00 0.00 69 1010.9
20260501225339 56 133 2.0 6.0 0.00 0.00 0.00 69 1010.8
20260501224849 57 169 3.0 6.0 0.00 0.00 0.00 68 1010.8
20260501224615 57 161 2.0 4.0 0.00 0.00 0.00 67 1010.8
20260501224554 57 178 1.0 5.0 0.00 0.00 0.00 67 1010.3
20260501224338 57 167 1.0 5.0 0.00 0.00 0.00 66 1010.7
20260501223848 58 156 2.0 6.0 0.00 0.00 0.00 65 1010.7
20260501223400 58 175 2.0 6.0 0.00 0.00 0.00 64 1010.6
20260501223104 58 150 2.0 6.0 0.00 0.00 0.00 64 1010.6
20260501223041 58 177 1.0 6.0 0.00 0.00 0.00 63 1010.1
20260501222845 59 150 2.0 5.0 0.00 0.00 0.00 64 1010.6
20260501222355 59 178 2.0 6.0 0.00 0.00 0.00 63 1010.6
20260501221846 59 162 3.0 5.0 0.00 0.00 0.00 61 1010.7
20260501221615 59 166 2.0 5.0 0.00 0.00 0.00 61 1010.7
20260501221543 59 150 1.0 7.0 0.00 0.00 0.00 61 1010.2
20260501221337 60 103 2.0 6.0 0.00 0.00 0.00 60 1010.6
20260501220908 60 134 2.0 8.0 0.00 0.00 0.00 59 1010.6
20260501220340 61 173 3.0 8.0 0.00 0.00 0.00 56 1010.6
20260501220112 61 221 4.0 8.0 0.00 0.00 0.00 55 1010.6
20260501220046 61 204 4.0 8.0 0.00 0.00 0.00 54 1010.1
20260501215847 62 140 4.0 5.0 0.00 0.00 0.00 54 1010.5
20260501215341 62 93 2.0 4.0 0.00 0.00 0.00 55 1010.4
20260501214851 63 163 3.0 7.0 0.00 0.00 0.00 55 1010.3
20260501214616 63 142 2.0 7.0 0.00 0.00 0.00 53 1010.3
20260501214537 63 202 2.0 7.0 0.00 0.00 0.00 51 1009.9
20260501214341 64 175 4.0 7.0 0.00 0.00 0.00 51 1010.3
20260501213913 64 201 4.0 7.0 0.00 0.00 0.00 45 1010.2
20260501213343 64 231 2.0 5.0 0.00 0.00 0.00 42 1010.1
20260501213112 64 246 1.0 6.0 0.00 0.00 0.00 43 1010.1
20260501213048 64 218 1.0 6.0 0.00 0.00 0.00 43 1009.7
20260501212850 64 213 1.0 6.0 0.00 0.00 0.00 45 1010.0
20260501212358 64 136 3.0 6.0 0.00 0.00 0.00 43 1010.0
20260501211847 64 196 3.0 6.0 0.00 0.00 0.00 44 1010.1
20260501211612 64 172 1.0 7.0 0.00 0.00 0.00 43 1010.0
20260501211542 64 177 1.0 7.0 0.00 0.00 0.00 44 1009.6
20260501211355 64 32 1.0 7.0 0.00 0.00 0.00 42 1010.0
20260501210844 64 240 4.0 7.0 0.00 0.00 0.00 45 1010.1
20260501210416 64 178 3.0 5.0 0.00 0.00 0.00 43 1010.1
20260501210114 63 141 2.0 5.0 0.00 0.00 0.00 42 1010.2
20260501210052 63 220 1.0 6.0 0.00 0.00 0.00 42 1009.8
20260501205841 64 55 3.0 5.0 0.00 0.00 0.00 43 1010.1
20260501205348 64 167 2.0 10.0 0.00 0.00 0.00 43 1010.2
20260501204839 64 288 4.0 10.0 0.00 0.00 0.00 41 1010.2
20260501204609 64 207 4.0 8.0 0.00 0.00 0.00 42 1010.3
20260501204550 64 215 4.0 9.0 0.00 0.00 0.00 41 1009.7
20260501204350 64 161 4.0 8.0 0.00 0.00 0.00 41 1010.2
20260501203841 64 225 2.0 7.0 0.00 0.00 0.00 44 1010.2
20260501203353 64 160 3.0 7.0 0.00 0.00 0.00 42 1010.2
20260501203117 63 198 3.0 7.0 0.00 0.00 0.00 41 1010.3
20260501203039 63 227 2.0 7.0 0.00 0.00 0.00 42 1009.8
20260501202839 64 205 2.0 6.0 0.00 0.00 0.00 41 1010.3
20260501202350 64 273 1.0 8.0 0.00 0.00 0.00 45 1010.3
20260501201840 64 213 4.0 8.0 0.00 0.00 0.00 43 1010.3
20260501201607 64 210 4.0 8.0 0.00 0.00 0.00 45 1010.4
20260501201543 64 219 2.0 5.0 0.00 0.00 0.00 47 1009.9
20260501200841 64 156 2.0 6.0 0.00 0.00 0.00 44 1010.3
20260501200413 64 239 4.0 6.0 0.00 0.00 0.00 44 1010.3
20260501200116 64 200 3.0 8.0 0.00 0.00 0.00 43 1010.3
20260501200043 64 184 2.0 9.0 0.00 0.00 0.00 42 1009.8
20260501195839 64 246 3.0 9.0 0.00 0.00 0.00 43 1010.2
20260501195350 64 311 4.0 9.0 0.00 0.00 0.00 42 1010.3
20260501194840 64 305 6.0 8.0 0.00 0.00 0.00 45 1010.3
20260501194608 63 279 4.0 8.0 0.00 0.00 0.00 47 1010.4
20260501194540 63 291 1.0 8.0 0.00 0.00 0.00 40 1009.8
20260501194351 64 207 1.0 6.0 0.00 0.00 0.00 40 1010.3
20260501193839 64 172 2.0 7.0 0.00 0.00 0.00 42 1010.4
20260501193350 64 209 3.0 7.0 0.00 0.00 0.00 47 1010.5
20260501193113 63 180 1.0 9.0 0.00 0.00 0.00 41 1010.6
20260501193038 63 21 1.0 9.0 0.00 0.00 0.00 43 1010.0
20260501192856 64 238 4.0 9.0 0.00 0.00 0.00 41 1010.6
20260501192407 64 287 3.0 9.0 0.00 0.00 0.00 47 1010.6
20260501191835 65 187 3.0 7.0 0.00 0.00 0.00 42 1010.7
20260501191605 64 222 3.0 7.0 0.00 0.00 0.00 41 1010.8
20260501191539 64 225 3.0 9.0 0.00 0.00 0.00 45 1010.2
20260501191408 65 254 3.0 9.0 0.00 0.00 0.00 42 1010.8
20260501190353 65 229 4.0 8.0 0.00 0.00 0.00 40 1011.0
20260501190116 64 246 2.0 8.0 0.00 0.00 0.00 42 1011.1
20260501190045 64 225 2.0 9.0 0.00 0.00 0.00 41 1010.6
20260501185839 64 227 3.0 8.0 0.00 0.00 0.00 38 1011.1
20260501185349 64 265 1.0 9.0 0.00 0.00 0.00 42 1011.1
20260501184900 64 256 5.0 9.0 0.00 0.00 0.00 44 1011.2
20260501184607 64 261 3.0 8.0 0.00 0.00 0.00 41 1011.3
20260501184537 64 220 4.0 12.0 0.00 0.00 0.00 41 1010.8
20260501184349 64 225 4.0 12.0 0.00 0.00 0.00 44 1011.2
20260501183858 64 296 4.0 12.0 0.00 0.00 0.00 40 1011.3
20260501183347 64 296 4.0 11.0 0.00 0.00 0.00 39 1011.4
20260501183112 63 278 4.0 11.0 0.00 0.00 0.00 45 1011.5
20260501183039 63 265 3.0 7.0 0.00 0.00 0.00 42 1010.9
20260501182853 64 273 3.0 7.0 0.00 0.00 0.00 39 1011.4
20260501182344 64 290 3.0 9.0 0.00 0.00 0.00 46 1011.5